BID: ORB09309.D TO ALL RADIO AMATEURS BT Satellite: AO-16 Catalog number: 20439 Epoch time: 09308.59478811 Element set: 742 Inclination: 098.3000 deg RA of node: 270.7492 deg Eccentricity: 0.0011786 Arg of perigee: 111.3741 deg Mean anomaly: 248.8680 deg Mean motion: 14.31838166 rev/day Decay rate: 2.7e-07 rev/day^2 Epoch rev: 3324 Checksum: 302 Satellite: LO-19 Catalog number: 20442 Epoch time: 09308.69871232 Element set: 654 Inclination: 098.2622 deg RA of node: 277.5629 deg Eccentricity: 0.0012919 Arg of perigee: 108.1765 deg Mean anomaly: 252.0810 deg Mean motion: 14.32072164 rev/day Decay rate: 3.2e-07 rev/day^2 Epoch rev: 3342 Checksum: 288 Satellite: AO-27 Catalog number: 22825 Epoch time: 09308.85724913 Element set: 378 Inclination: 098.4555 deg RA of node: 257.9708 deg Eccentricity: 0.0007934 Arg of perigee: 204.8127 deg Mean anomaly: 155.2705 deg Mean motion: 14.29277331 rev/day Decay rate: -2.0e-07 rev/day^2 Epoch rev: 84000 Checksum: 316 Satellite: IO-26 Catalog number: 22826 Epoch time: 09309.87252772 Element set: 112 Inclination: 098.4484 deg RA of node: 259.6457 deg Eccentricity: 0.0008547 Arg of perigee: 197.4424 deg Mean anomaly: 162.6465 deg Mean motion: 14.29530654 rev/day Decay rate: -4.0e-08 rev/day^2 Epoch rev: 84025 Checksum: 328 Satellite: GO-32 Catalog number: 25397 Epoch time: 09309.80991511 Element set: 32 Inclination: 098.3187 deg RA of node: 324.5232 deg Eccentricity: 0.0001084 Arg of perigee: 150.4576 deg Mean anomaly: 209.6669 deg Mean motion: 14.23165556 rev/day Decay rate: -7.0e-07 rev/day^2 Epoch rev: 58827 Checksum: 314 Satellite: NO-44 Catalog number: 26931 Epoch time: 09308.83846795 Element set: 0307 Inclination: 067.0521 deg RA of node: 061.9810 deg Eccentricity: 0.0006948 Arg of perigee: 270.1274 deg Mean anomaly: 089.9050 deg Mean motion: 14.29571728 rev/day Decay rate: 1.9e-07 rev/day^2 Epoch rev: 42268 Checksum: 325 Satellite: SO-50 Catalog number: 27607 Epoch time: 09308.53273700 Element set: 0026 Inclination: 064.5589 deg RA of node: 318.8429 deg Eccentricity: 0.0050316 Arg of perigee: 169.1087 deg Mean anomaly: 191.1126 deg Mean motion: 14.71471846 rev/day Decay rate: 5.1e-07 rev/day^2 Epoch rev: 36932 Checksum: 305 Satellite: CO-55 Catalog number: 27844 Epoch time: 09308.57021750 Element set: 0705 Inclination: 098.7133 deg RA of node: 315.7638 deg Eccentricity: 0.0010538 Arg of perigee: 096.6297 deg Mean anomaly: 263.6083 deg Mean motion: 14.20664775 rev/day Decay rate: 7.4e-07 rev/day^2 Epoch rev: 32919 Checksum: 330 Satellite: CO-57 Catalog number: 27848 Epoch time: 09308.70834822 Element set: 0657 Inclination: 098.7169 deg RA of node: 314.9666 deg Eccentricity: 0.0010799 Arg of perigee: 102.2363 deg Mean anomaly: 258.0021 deg Mean motion: 14.20463183 rev/day Decay rate: 4.1e-07 rev/day^2 Epoch rev: 32917 Checksum: 319 Satellite: AO-51 Catalog number: 28375 Epoch time: 09308.60837998 Element set: 525 Inclination: 098.0539 deg RA of node: 310.0490 deg Eccentricity: 0.0085105 Arg of perigee: 058.8147 deg Mean anomaly: 302.1355 deg Mean motion: 14.40657430 rev/day Decay rate: 2.0e-07 rev/day^2 Epoch rev: 28117 Checksum: 301 Satellite: CO-56 Catalog number: 28941 Epoch time: 09297.68475575 Element set: 556 Inclination: 098.0955 deg RA of node: 138.9518 deg Eccentricity: 0.0011688 Arg of perigee: 319.8691 deg Mean anomaly: 040.7485 deg Mean motion: 16.46998778 rev/day Decay rate: 1.4491492e-01 rev/day^2 Epoch rev: 20790 Checksum: 407 Satellite: GENESAT1 Catalog number: 29655 Epoch time: 09308.56491210 Element set: 0852 Inclination: 040.0238 deg RA of node: 021.7595 deg Eccentricity: 0.0002915 Arg of perigee: 132.4497 deg Mean anomaly: 227.6571 deg Mean motion: 15.69211764 rev/day Decay rate: 1.8746e-04 rev/day^2 Epoch rev: 16450 Checksum: 305 Satellite: CP3 Catalog number: 31129 Epoch time: 09309.56295760 Element set: 307 Inclination: 097.9707 deg RA of node: 355.7426 deg Eccentricity: 0.0101878 Arg of perigee: 206.8622 deg Mean anomaly: 152.7284 deg Mean motion: 14.52176849 rev/day Decay rate: 1.63e-06 rev/day^2 Epoch rev: 13540 Checksum: 320 Satellite: CO-65 Catalog number: 32785 Epoch time: 09308.33753546 Element set: 0516 Inclination: 097.9300 deg RA of node: 011.0234 deg Eccentricity: 0.0014179 Arg of perigee: 298.6224 deg Mean anomaly: 061.3565 deg Mean motion: 14.81536441 rev/day Decay rate: 1.94e-06 rev/day^2 Epoch rev: 08219 Checksum: 305 Satellite: KKS-1 Catalog number: 33493 Epoch time: 09309.73787296 Element set: 913 Inclination: 098.0685 deg RA of node: 062.6647 deg Eccentricity: 0.0020815 Arg of perigee: 141.4039 deg Mean anomaly: 218.8670 deg Mean motion: 14.80766055 rev/day Decay rate: 3.90e-06 rev/day^2 Epoch rev: 4241 Checksum: 318 Satellite: SOHLA-1 Catalog number: 33496 Epoch time: 09309.74950443 Element set: 878 Inclination: 098.0480 deg RA of node: 056.9268 deg Eccentricity: 0.0006315 Arg of perigee: 182.9282 deg Mean anomaly: 177.1896 deg Mean motion: 14.69453176 rev/day Decay rate: 3.8e-07 rev/day^2 Epoch rev: 4206 Checksum: 337 /EX SB KEPS @ AMSAT $ORB09309.W Orbital Elements 09309.WEATHER HR AMSAT ORBITAL ELEMENTS FOR WEATHER SATELLITES FROM WA5QGD FORT WORTH,TX November 5, 2009 Send Subscribe/unsubscribe to KEPS at
http://www.amsat.org/mailman/listinfo/keps
